Regional Weather Roundup
Issued by NWS State College, PA

Home | Current Version | Previous Version | Text Only | Print | Product List | Glossary Off
Versions: 1 2 3 4 5 6 7 8 9 10 11 12 13 14 15 16 17 18 19 20 21 22 23 24 25 26 27 28 29 30 31 32 33 34 35 36 37 38 39 40 41 42 43 44 45 46 47 48 49 50

000
ASUS41 KCTP 250110
RWRCTP

REGIONAL WEATHER ROUNDUP
NATIONAL WEATHER SERVICE STATE COLLEGE PA
900 PM EDT FRI MAR 24 2017

Note: "fair" indicates few or no clouds below 12,000 feet with no
significant weather and/or obstructions to visibility.

* = STATION THAT DOES NOT REPORT PRECIPITATION /E.G. RAIN...SNOW...ETC/
    THUNDER OR FOG.

PAZ002>004-007>009-013>016-020>023-029>032-250200-
WESTERN PENNSYLVANIA

CITY           SKY/WX    TMP DP  RH WIND       PRES   REMARKS
ERIE           CLOUDY    64  50  60 S8        30.01R
MEADVILLE      MOCLDY    64  48  56 S8        30.06R
FRANKLIN*      PTCLDY    63  48  59 SW8       30.09R
NEW CASTLE     FAIR      67  52  58 SW9       30.09R
BEAVER COUNTY  CLEAR     68  52  56 W10       30.09R
BUTLER*        CLOUDY    66  48  52 SW10G17   30.10R
PITTSBURGH INT CLOUDY    69  51  52 SW9       30.09R
PITTSBURGH     CLEAR     68  49  50 SW13      30.10R
INDIANA*       PTCLDY    64  50  59 W10G16    30.11R
LATROBE        CLEAR     63  50  63 SW12      30.11R
WASHINGTON CO* CLOUDY    66  50  55 SW7       30.14R
$$

PAZ004>006-010>012-017>019-024>028-033>037-041-042-045-046-049>053-250200-
CENTRAL PENNSYLVANIA

CITY           SKY/WX    TMP DP  RH WIND       PRES   REMARKS
BRADFORD       MOCLDY    64  49  57 SW8       30.06R
DUBOIS         PTCLDY    62  47  57 W9        30.08R
CLEARFIELD       N/A    N/A N/A N/A MISG      30.08R
JOHNSTOWN      CLEAR     64  48  56 W14G21    30.12R
ALTOONA        CLEAR     66  50  56 SW13      30.10R
STATE COLLEGE  CLEAR     57  45  62 CALM      30.08R
WILLIAMSPORT   PTCLDY    50  39  66 E7        30.10
SELINSGROVE    PTCLDY    47  40  76 CALM      30.12R
FT INDIANTOWN  PTCLDY    49  42  75 CALM      30.13R
CAPITAL CITY   MOCLDY    56  36  47 VRB3      30.12S
HARRISBURG     MOCLDY    56  39  53 SW8G17    30.12S
YORK           CLOUDY    54  39  57 SW5       30.13S
$$

PAZ038>040-043-044-047-048-054-055-060>062-067>071-250200-
EASTERN PENNSYLVANIA

CITY           SKY/WX    TMP DP  RH WIND       PRES   REMARKS
SCRANTON       CLOUDY    46  38  73 SW3       30.11R
MOUNT POCONO   CLOUDY    42  36  79 W9        30.11R
ALLENTOWN      CLOUDY    49  33  54 SW3       30.14R
QUAKERTOWN*    CLOUDY    48  32  53 SW3       30.14R
READING        PTCLDY    50  36  58 CALM      30.13R
LANCASTER      PTCLDY    44  37  76 E3        30.13S
COATESVILLE    CLOUDY    48  34  57 CALM      30.15S
POTTSTOWN      CLOUDY    48  31  51 CALM      30.15S
BLUE BELL      CLEAR     48  32  53 SW3       30.13S
DOYLESTOWN     CLOUDY   N/A N/A N/A SW5       30.13R
WILLOW GROVE   NOT AVBL
NORTH PHILA    CLEAR     55  33  43 SW8       30.15S
PHILADELPHIA   PTCLDY    53  34  48 SW7       30.16S
$$




USA.gov is the U.S. government's official web portal to all federal, state and local government web resources and services.